{"data":{"norad_id":60950,"epoch":"2026-05-24T23:23:13.572960Z","epoch_age_seconds":91312,"freshness":"FRESH","line1":"1 60950U 24156F   26144.97446265  .00007790  00000+0  32433-3 0  9998","line2":"2 60950  34.9936 343.8792 0000689 254.9593 105.1046 15.23025157 95903","mean_motion":15.23025157,"eccentricity":6.89e-5,"inclination_deg":34.9936,"raan_deg":343.8792,"arg_perigee_deg":254.9593,"mean_anomaly_deg":105.1046,"bstar":0.00032433,"rev_number":9590,"period_min":94.548668049349,"perigee_km":496.24823640027,"apogee_km":497.19559195864,"semimajor_km":6874.8589141795,"source":"CELESTRAK","updated_at":"2026-05-25T13:38:02.268540Z"}}